Regional Weather Roundup
Issued by NWS

Home | Current Version | Previous Version | Graphics & Text | Print | Product List | Glossary On
Versions: 1 2 3 4 5 6 7 8 9 10 11 12 13 14 15 16 17 18 19 20 21 22 23 24 25 26 27 28 29 30 31 32 33 34 35 36 37 38 39 40 41 42 43 44 45 46 47 48 49 50
000
ASUS45 KCYS 232010
RWRWY

WYOMING REGIONAL WEATHER ROUNDUP
NATIONAL WEATHER SERVICE CHEYENNE WY
200 PM MDT THU MAR 23 2017

NOTE:  "FAIR" INDICATES FEW OR NO CLOUDS BELOW 12,000 FEET
WITH NO SIGNIFICANT WEATHER AND/OR OBSTRUCTIONS TO VISIBILITY.

WYZ001-232100-
YELLOWSTONE NATIONAL PARK

CITY           SKY/WX    TMP DP  RH WIND       PRES   REMARKS
LK YELLOWSTONE   N/A     38  24  57 N9G17     29.84R WCI  31
W YELLOWSTONE  NOT AVBL

$$
WYZ002>013-054>058-071-098>099-232100-
NORTHERN WYOMING

CITY           SKY/WX    TMP DP  RH WIND       PRES   REMARKS
JACKSON        PTSUNNY   43  30  61 CALM      29.80R
CODY           LGT RAIN  42  34  73 N9        29.84R
GREYBULL       CLOUDY    46  37  71 NW25G37   29.74R
WORLAND        LGT RAIN  43  41  93 NW20G26   29.75R
SHERIDAN       LGT RAIN  43  40  89 W13       29.82R
BUFFALO        LGT RAIN  40  35  83 N17G28    29.81R WCI  31
GILLETTE       LGT RAIN  39  38  96 N21       29.75F WCI  29
HULETT         LGT RAIN  41  37  87 N13       29.76S
NEWCASTLE      FAIR      55  37  50 NW21G30   29.65F

$$
WYZ014>020-022>026-101>103-232100-
CENTRAL WYOMING

CITY           SKY/WX    TMP DP  RH WIND       PRES   REMARKS
BIG PINEY      LGT SNOW  34  33  96 NE15      29.77R FOG     WCI  24
PINEDALE       LGT SNOW  34  34 100 W6        29.78R WCI  29
DUBOIS         LGT SNOW  32  32 100 W5        29.79R VSB 3/4 WCI  27
LANDER         LGT RAIN  40  37  89 NW13      29.77R WCI  32
RIVERTON       LGT RAIN  38  37  97 W10       29.78R WCI  31
CASPER         CLOUDY    50  40  68 N14       29.69F
DOUGLAS        FAIR      60  39  45 NW14      29.66F

$$
WYZ021-027>030-104>119-232100-
SOUTHERN WYOMING

CITY           SKY/WX    TMP DP  RH WIND       PRES   REMARKS
EVANSTON       LGT SNOW  33  30  88 W12       29.82R VSB 3/4 WCI  24
KEMMERER       SNOW      34  32  93 SW9       29.78R VSB<1/4 WCI  26
FORT BRIDGER   CLOUDY    38  38  97 W14G20    29.80S WCI  30
ROCK SPRINGS   CLOUDY    46  35  65 W8        29.74R
DIXON            N/A     59  24  26 SW23G29   29.72S
RAWLINS        FAIR      55  25  31 SW23G29   29.69F
SARATOGA       FAIR      55  19  24 SW17G28   29.70S
LARAMIE        FAIR      61  12  14 SW26G35   29.67F
CHEYENNE       FAIR      66  15  14 S20G28    29.62F
TORRINGTON     CLOUDY    67  28  23 CALM      29.57F
PINE BLUFFS    FAIR      73  14  10 S12G23    29.61S

$$



USA.gov is the U.S. government's official web portal to all federal, state and local government web resources and services.